Hourly Data Report for March 25, 2017

All times are specified in Local Standard Time (LST). Add 1 hour to adjust for Daylight Saving Time where and when it is observed.

TORONTO CITY
ONTARIO

43°40'00.000" N
79°24'00.000" W
112.50 m
6158355
71508
XTO

Download Data

Hourly Data (March 2017)
Hourly Data Report for March 25, 2017
TIME Temp Definition
°C
Dew Point Definition
°C
Rel Hum Definition
%
Wind Dir Definition
10's deg

Wind Spd Definition
km/h
Visibility Definition
km
Stn Press Definition
kPa
Hmdx Definition


Wind Chill Definition


Weather Definition


00:00 4.9 3.0 87 LegendMM LegendMM   100.68     LegendNANA
01:00 4.5 2.7 88 LegendMM LegendMM   100.69     LegendNANA
02:00 4.1 2.3 88 LegendMM LegendMM   100.70     LegendNANA
03:00 4.0 2.2 88 LegendMM LegendMM   100.74     LegendNANA
04:00 3.7 1.9 88 LegendMM LegendMM   100.74     LegendNANA
05:00 3.4 1.6 88 LegendMM LegendMM   100.81     LegendNANA
06:00 2.4 1.4 93 LegendMM LegendMM   100.91     LegendNANA
07:00 2.3 1.3 93 LegendMM LegendMM   101.02     LegendNANA
08:00 2.2 0.7 90 LegendMM LegendMM   101.10     LegendNANA
09:00 2.3 0.7 89 LegendMM LegendMM   101.21     LegendNANA
10:00 2.5 0.9 89 LegendMM LegendMM   101.30     LegendNANA
11:00 2.6 1.1 89 LegendMM LegendMM   101.35     LegendNANA
12:00 2.8 0.5 84 LegendMM LegendMM   101.36     LegendNANA
13:00 2.9 -0.5 78 LegendMM LegendMM   101.39     LegendNANA
14:00 3.7 -0.4 75 LegendMM LegendMM   101.37     LegendNANA
15:00 3.5 -0.1 78 LegendMM LegendMM   101.39     LegendNANA
16:00 3.7 0.2 78 LegendMM LegendMM   101.40     LegendNANA
17:00 3.5 0.0 78 LegendMM LegendMM   101.40     LegendNANA
18:00 3.2 0.2 81 LegendMM LegendMM   101.37     LegendNANA
19:00 3.1 0.2 82 LegendMM LegendMM   101.40     LegendNANA
20:00 3.0 0.2 82 LegendMM LegendMM   101.50     LegendNANA
21:00 2.9 0.2 83 LegendMM LegendMM   101.47     LegendNANA
22:00 2.7 0.2 84 LegendMM LegendMM   101.43     LegendNANA
23:00 2.4 -1.0 79 LegendMM LegendMM   101.41     LegendNANA

Notes on Data Quality.

Legend

  • E = Estimated
  • M = Missing
  • NA = Not Available
Date modified: